W4WWT Weather Reports


Display with metric or nautical units.
time (UTC)temp
F
wind
direction
speed
MPH
gust
MPH
rain 1hr
in
rain 24hr
in
rain mn
in
humidity
%
barometer
mb
20260505072003 47 98 0.0 0.0 0.00 0.00 0.00 95 1022.7
20260505070502 47 98 0.0 0.0 0.00 0.00 0.00 95 1022.4
20260505065004 47 98 0.0 0.0 0.00 0.00 0.00 94 1022.4
20260505064002 48 95 0.0 0.0 0.00 0.00 0.00 93 1022.4
20260505062506 48 97 0.0 0.0 0.00 0.00 0.00 93 1022.4
20260505061004 48 81 0.0 0.0 0.00 0.00 0.00 93 1022.7
20260505060002 49 80 0.0 0.0 0.00 0.00 0.00 93 1022.7
20260505053001 50 75 0.0 0.0 0.00 0.00 0.00 92 1022.7
20260505051502 50 72 0.0 0.0 0.00 0.00 0.00 92 1022.7
20260505041502 52 241 0.0 0.0 0.00 0.00 0.00 88 1022.7
20260505040019 53 35 0.0 0.0 0.00 0.00 0.00 86 1022.7
20260505034503 54 74 0.0 0.0 0.00 0.00 0.00 85 1022.7
20260505030001 56 12 0.0 0.0 0.00 0.00 0.00 80 1022.7
20260505024502 57 88 0.0 0.0 0.00 0.00 0.00 78 1022.7
20260505023002 58 108 0.0 0.0 0.00 0.00 0.00 74 1022.7
20260505021503 59 93 0.0 0.0 0.00 0.00 0.00 71 1022.7
20260505014502 60 135 0.0 0.0 0.00 0.00 0.00 68 1022.4
20260505011502 61 115 0.0 0.0 0.00 0.00 0.00 68 1022.0
20260505010502 62 96 0.0 0.0 0.00 0.00 0.00 66 1022.0
20260505005002 64 91 0.0 0.0 0.00 0.00 0.00 62 1021.7
20260505004001 65 102 0.0 0.0 0.00 0.00 0.00 58 1021.7
20260505002502 68 97 0.0 0.0 0.00 0.00 0.00 53 1021.7
20260505001003 69 104 0.0 0.0 0.00 0.00 0.00 47 1021.3
20260504235503 70 180 0.0 1.0 0.00 0.00 0.00 45 1021.3
20260504234003 71 232 0.0 0.0 0.00 0.00 0.00 44 1021.7
20260504233002 71 284 0.0 0.0 0.00 0.00 0.00 44 1021.3
20260504231502 71 120 0.0 1.0 0.00 0.00 0.00 45 1021.3
20260504230501 72 97 0.0 0.0 0.00 0.00 0.00 45 1021.3
20260504223502 72 95 0.0 3.0 0.00 0.00 0.00 41 1021.3
20260504221001 73 103 0.0 1.0 0.00 0.00 0.00 40 1021.3
20260504214003 73 134 0.0 3.0 0.00 0.00 0.00 35 1021.3
20260504213001 74 153 0.0 4.0 0.00 0.00 0.00 33 1021.3
20260504211502 74 50 0.0 3.0 0.00 0.00 0.00 35 1021.3
20260504210003 75 229 0.0 3.0 0.00 0.00 0.00 35 1021.3
20260504205002 75 195 3.0 5.0 0.00 0.00 0.00 36 1021.3
20260504203503 76 305 0.0 4.0 0.00 0.00 0.00 37 1021.3
20260504202002 76 87 0.0 5.0 0.00 0.00 0.00 39 1021.7
20260504200505 77 36 1.0 1.0 0.00 0.00 0.00 37 1021.7
20260504195502 77 270 0.0 7.0 0.00 0.00 0.00 36 1021.7
20260504194501 79 113 2.0 3.0 0.00 0.00 0.00 36 1021.7
20260504193002 79 37 0.0 3.0 0.00 0.00 0.00 35 1022.0
20260504192001 79 199 1.0 4.0 0.00 0.00 0.00 33 1022.0
20260504190502 78 43 2.0 3.0 0.00 0.00 0.00 35 1022.4
20260504185002 81 161 2.0 5.0 0.00 0.00 0.00 34 1022.4
20260504183504 81 13 2.0 2.0 0.00 0.00 0.00 34 1022.7
20260504182002 80 288 0.0 1.0 0.00 0.00 0.00 36 1023.0
20260504180503 80 21 0.0 2.0 0.00 0.00 0.00 36 1023.0
20260504173503 78 85 2.0 3.0 0.00 0.00 0.00 36 1023.0
20260504170502 77 7 0.0 1.0 0.00 0.00 0.00 38 1023.4
20260504081002 40 74 0.0 0.0 0.00 0.00 0.00 94 1024.4